Change the Weather History Date:

Thursday, November 29, 2012

  Actual Average Record
Temperature  
Mean Temperature 22 °F -  
Max Temperature 26 °F 37 °F 47 °F (1965)
Min Temperature 19 °F 24 °F -5 °F (1985)
Degree Days  
Heating Degree Days 42    
Moisture  
Dew Point 15 °F    
Average Humidity 68    
Maximum Humidity 80    
Minimum Humidity 46    
Precipitation  
Precipitation 0.00 in - - ()
Sea Level Pressure  
Sea Level Pressure 29.51 in    
Wind  
Wind Speed 6 mph (NNW)    
Max Wind Speed 10 mph    
Max Gust Speed -    
Visibility 7 miles    
Events      
Averages and records for this station are not official NWS values.
T = Trace of Precipitation, MM = Missing Value Source: NWS Daily Summary

Daily Weather History Graph

Daily Weather History Graph

Search for Another Location

Airport or City:

Trip Planner

Search our weather history database for the weather conditions in past years. The results will help you decide how hot, cold, wet, or windy it might be!

Date:

Astronomy

Nov. 29, 2012 Rise Set
Actual Time 8:23 AM AKST 3:19 PM AKST
Civil Twilight 7:33 AM AKST 4:09 PM AKST
Nautical Twilight 6:41 AM AKST 5:00 PM AKST
Astronomical Twilight 5:53 AM AKST 5:48 PM AKST
Moon 4:27 PM AKST (11/29) 9:17 AM AKST (11/29)
Length of Visible Light 8h 35m
Length of Day
6h 55m
Full, 99% of the Moon is Illuminated
Nov 29
Full
Dec 6
Last Quarter
Dec 12
New
Dec 19
First Quarter
Dec 28
Full

Hourly Weather History & Observations

Time (AKST) Temp. Windchill Dew Point Humidity Pressure Visibility Wind Dir Wind Speed Gust Speed Precip Events Conditions
12:16 AM 19.4 °F 10.4 °F 8.6 °F 63% 29.58 in 10.0 mi NNW 6.9 mph - N/A   Mostly Cloudy
12:36 AM 19.4 °F 12.8 °F 10.4 °F 68% 29.58 in 10.0 mi North 4.6 mph - N/A   Mostly Cloudy
12:56 AM 19.4 °F 11.5 °F 8.6 °F 63% 29.57 in 10.0 mi NNW 5.8 mph - N/A   Partly Cloudy
1:16 AM 19.4 °F - 10.4 °F 68% 29.57 in 10.0 mi Calm Calm - N/A   Partly Cloudy
1:36 AM 21.2 °F 14.9 °F 10.4 °F 63% 29.56 in 10.0 mi North 4.6 mph - N/A   Clear
1:56 AM 23.0 °F 17.0 °F 8.6 °F 54% 29.56 in 10.0 mi NNW 4.6 mph - N/A   Clear
2:16 AM 24.8 °F 19.1 °F 6.8 °F 46% 29.55 in 10.0 mi North 4.6 mph - N/A   Mostly Cloudy
2:36 AM 24.8 °F 20.5 °F 8.6 °F 50% 29.55 in 10.0 mi NE 3.5 mph - N/A   Overcast
2:56 AM 23.0 °F 17.0 °F 10.4 °F 59% 29.55 in 10.0 mi NW 4.6 mph - N/A   Overcast
3:16 AM 24.8 °F 17.9 °F 8.6 °F 50% 29.54 in 10.0 mi NNW 5.8 mph - N/A   Overcast
3:36 AM 24.8 °F 16.9 °F 12.2 °F 59% 29.53 in 10.0 mi NNW 6.9 mph - N/A   Overcast
3:56 AM 24.8 °F 20.5 °F 12.2 °F 59% 29.53 in 10.0 mi NNW 3.5 mph - N/A   Overcast
4:16 AM 21.2 °F - 15.8 °F 80% 29.53 in 10.0 mi Calm Calm - N/A   Overcast
4:36 AM 24.8 °F 20.5 °F 12.2 °F 59% 29.52 in 10.0 mi NNW 3.5 mph - N/A   Overcast
4:56 AM 24.8 °F 20.5 °F 10.4 °F 54% 29.52 in 10.0 mi North 3.5 mph - N/A   Overcast
5:16 AM 26.6 °F 21.2 °F 10.4 °F 51% 29.52 in 10.0 mi North 4.6 mph - N/A   Overcast
5:36 AM 24.8 °F 19.1 °F 8.6 °F 50% 29.51 in 10.0 mi NNW 4.6 mph - N/A   Overcast
5:56 AM 24.8 °F - 14.0 °F 64% 29.51 in 10.0 mi Calm Calm - N/A   Overcast
6:16 AM 24.8 °F 19.1 °F 10.4 °F 54% 29.50 in 10.0 mi North 4.6 mph - N/A   Overcast
6:36 AM 24.8 °F - 12.2 °F 59% 29.50 in 10.0 mi Calm Calm - N/A   Overcast
6:56 AM 24.8 °F 20.5 °F 12.2 °F 59% 29.49 in 10.0 mi NNW 3.5 mph - N/A   Overcast
7:16 AM 26.6 °F 20.0 °F 12.2 °F 55% 29.48 in 10.0 mi NE 5.8 mph - N/A   Overcast
7:36 AM 26.6 °F 20.0 °F 12.2 °F 55% 29.49 in 10.0 mi NE 5.8 mph - N/A   Overcast
7:56 AM 26.6 °F 20.0 °F 12.2 °F 55% 29.49 in 10.0 mi NE 5.8 mph - N/A   Overcast
8:16 AM 26.6 °F 18.2 °F 12.2 °F 55% 29.49 in 9.0 mi NNE 8.1 mph - N/A   Overcast
8:36 AM 24.8 °F 20.5 °F 14.0 °F 64% 29.49 in 4.0 mi NNW 3.5 mph - N/A   Overcast
8:56 AM 24.8 °F 16.9 °F 15.8 °F 69% 29.49 in 2.5 mi NNW 6.9 mph - N/A   Overcast
9:16 AM 24.8 °F 14.6 °F 15.8 °F 69% 29.49 in 4.0 mi NNW 10.4 mph - N/A   Overcast
9:36 AM 24.8 °F 15.3 °F 15.8 °F 69% 29.49 in 3.0 mi NNW 9.2 mph - N/A   Overcast
9:56 AM 24.8 °F 16.1 °F 15.8 °F 69% 29.48 in 2.5 mi NNW 8.1 mph - N/A   Overcast
10:16 AM 24.8 °F 16.9 °F 15.8 °F 69% 29.48 in 1.8 mi NW 6.9 mph - N/A   Overcast
10:36 AM 24.8 °F 17.9 °F 17.6 °F 74% 29.48 in 2.0 mi NNW 5.8 mph - N/A   Overcast
10:56 AM 24.8 °F 17.9 °F 17.6 °F 74% 29.48 in 2.0 mi NNW 5.8 mph - N/A   Overcast
11:16 AM 24.8 °F 20.5 °F 17.6 °F 74% 29.48 in 1.2 mi NNW 3.5 mph - N/A   Overcast
11:36 AM 24.8 °F 19.1 °F 17.6 °F 74% 29.47 in 1.5 mi NNW 4.6 mph - N/A   Overcast
11:56 AM 24.8 °F 16.9 °F 17.6 °F 74% 29.47 in 1.0 mi NNW 6.9 mph - N/A   Overcast
12:16 PM 24.8 °F 17.9 °F 17.6 °F 74% 29.47 in 1.0 mi NW 5.8 mph - N/A   Overcast
12:36 PM 24.8 °F 16.1 °F 19.4 °F 80% 29.47 in 1.2 mi NNW 8.1 mph - N/A   Overcast
12:56 PM 24.8 °F 17.9 °F 19.4 °F 80% 29.47 in 1.0 mi NW 5.8 mph - N/A   Overcast
1:16 PM 24.8 °F 16.9 °F 19.4 °F 80% 29.47 in 1.0 mi NNW 6.9 mph - N/A   Overcast
1:36 PM 24.8 °F 16.9 °F 19.4 °F 80% 29.47 in 1.2 mi NNW 6.9 mph - N/A   Overcast
1:56 PM 24.8 °F 16.1 °F 19.4 °F 80% 29.47 in 1.5 mi NNW 8.1 mph - N/A   Overcast
2:16 PM 24.8 °F 17.9 °F 19.4 °F 80% 29.47 in 1.5 mi NNW 5.8 mph - N/A   Overcast
2:36 PM 24.8 °F 16.9 °F 19.4 °F 80% 29.47 in 1.2 mi NNW 6.9 mph - N/A   Overcast
2:56 PM 24.8 °F 16.9 °F 19.4 °F 80% 29.47 in 2.0 mi NW 6.9 mph - N/A   Overcast
3:16 PM 24.8 °F 16.1 °F 17.6 °F 74% 29.47 in 2.0 mi NNW 8.1 mph - N/A   Overcast
3:36 PM 24.8 °F 17.9 °F 17.6 °F 74% 29.48 in 10.0 mi NW 5.8 mph - N/A   Mostly Cloudy
3:56 PM 24.8 °F 16.9 °F 17.6 °F 74% 29.48 in 5.0 mi NNW 6.9 mph - N/A   Overcast
4:16 PM 24.8 °F 16.9 °F 17.6 °F 74% 29.49 in 2.5 mi NNW 6.9 mph - N/A   Overcast
4:36 PM 24.8 °F 17.9 °F 17.6 °F 74% 29.49 in 2.5 mi NW 5.8 mph - N/A   Overcast
4:56 PM 24.8 °F 17.9 °F 17.6 °F 74% 29.49 in 2.5 mi NNW 5.8 mph - N/A   Overcast
5:16 PM 24.8 °F 16.1 °F 17.6 °F 74% 29.49 in 3.0 mi NW 8.1 mph - N/A   Overcast
5:36 PM 24.8 °F 16.1 °F 17.6 °F 74% 29.50 in 4.0 mi NW 8.1 mph - N/A   Overcast
5:56 PM 24.8 °F 16.1 °F 17.6 °F 74% 29.50 in 4.0 mi NW 8.1 mph - N/A   Overcast
6:16 PM 24.8 °F 16.9 °F 17.6 °F 74% 29.51 in 4.0 mi NW 6.9 mph - N/A   Overcast
6:36 PM 24.8 °F 16.9 °F 17.6 °F 74% 29.51 in 10.0 mi NW 6.9 mph - N/A   Overcast
6:56 PM 24.8 °F 17.9 °F 17.6 °F 74% 29.51 in 10.0 mi NW 5.8 mph - N/A   Overcast
7:16 PM 24.8 °F 16.9 °F 17.6 °F 74% 29.51 in 10.0 mi NW 6.9 mph - N/A   Overcast
7:36 PM 24.8 °F 17.9 °F 15.8 °F 69% 29.52 in 10.0 mi NW 5.8 mph - N/A   Overcast
7:56 PM 24.8 °F 16.1 °F 15.8 °F 69% 29.51 in 10.0 mi NNW 8.1 mph - N/A   Overcast
8:16 PM 24.8 °F 16.9 °F 15.8 °F 69% 29.52 in 10.0 mi NW 6.9 mph - N/A   Overcast
8:36 PM 24.8 °F 16.9 °F 15.8 °F 69% 29.52 in 10.0 mi NNW 6.9 mph - N/A   Overcast
8:56 PM 24.8 °F 17.9 °F 15.8 °F 69% 29.52 in 10.0 mi NNW 5.8 mph - N/A   Overcast
9:16 PM 24.8 °F 16.9 °F 15.8 °F 69% 29.52 in 10.0 mi NNW 6.9 mph - N/A   Overcast
9:36 PM 24.8 °F 14.6 °F 15.8 °F 69% 29.53 in 10.0 mi NNW 10.4 mph - N/A   Overcast
9:56 PM 24.8 °F 16.1 °F 15.8 °F 69% 29.53 in 10.0 mi NNW 8.1 mph - N/A   Overcast
10:16 PM 24.8 °F 14.6 °F 15.8 °F 69% 29.53 in 10.0 mi NNW 10.4 mph - N/A   Overcast
10:36 PM 24.8 °F 16.1 °F 15.8 °F 69% 29.53 in 10.0 mi NNW 8.1 mph - N/A   Overcast
10:56 PM 24.8 °F 15.3 °F 15.8 °F 69% 29.53 in 10.0 mi NNW 9.2 mph - N/A   Overcast
11:16 PM 24.8 °F 14.6 °F 15.8 °F 69% 29.53 in 10.0 mi NW 10.4 mph - N/A   Overcast
11:36 PM 24.8 °F 15.3 °F 15.8 °F 69% 29.53 in 10.0 mi NNW 9.2 mph - N/A   Overcast
11:56 PM 24.8 °F 15.3 °F 15.8 °F 69% 29.52 in 10.0 mi NNW 9.2 mph - N/A   Overcast